Theta_e
348 348 348 348 348 346 344 342 342 342 342 343 342 342 341 339 342 343 342 342 344 345 347 347 346 346 346 347 346 346 346 346 346 344 343 343 344 344 345 345 345 345 344
348 347 347 342 337 334 331 330 331 330 330 342 344 341 340 341 341 341 341 343 344 345 345 345 345 346 345 346 345 346 345 345 346 346 344 342 343 344 344 345 344 345 347
331 327 327 328 327 326 325 324 324 325 325 326 339 344 343 341 339 338 338 339 339 343 344 345 346 344 344 345 345 346 343 345 345 346 344 343 344 340 345 346 346 345 346
326 327 328 329 329 329 329 328 326 326 325 326 326 332 340 343 343 341 341 342 342 342 344 341 343 343 343 344 345 346 343 346 346 346 345 346 345 341 344 346 345 347 348
331 332 333 334 334 335 336 335 331 327 327 326 328 327 330 335 341 344 344 344 344 342 342 340 342 341 341 341 342 343 347 346 346 346 346 346 344 343 341 344 344 344 345
334 335 336 336 337 337 338 338 336 331 329 328 327 327 327 328 337 336 331 329 334 345 345 343 342 338 342 342 341 342 344 345 345 345 344 345 344 343 343 343 344 343 344
336 339 338 338 338 339 339 339 334 333 331 328 327 326 325 324 325 328 328 327 326 325 331 338 341 341 342 342 341 340 341 342 343 344 345 343 344 344 342 344 345 344 342
337 338 339 341 340 341 338 332 330 330 330 328 326 325 324 324 324 323 325 326 325 324 325 327 327 327 331 336 343 342 342 343 341 341 342 342 342 344 344 344 345 345 345
339 341 340 342 340 334 331 331 332 330 328 327 328 329 329 329 329 329 332 333 334 330 331 331 330 334 335 333 337 340 342 342 342 340 338 340 340 341 341 345 345 345 345
338 336 338 336 334 332 332 332 330 329 328 328 327 327 328 328 329 330 331 333 335 336 333 334 335 335 334 335 334 332 332 334 334 334 336 340 341 341 341 340 342 343 345
335 337 336 336 334 332 331 331 331 331 330 329 329 326 326 326 326 328 330 331 331 332 331 331 330 331 333 335 335 335 334 334 334 333 333 334 334 334 339 342 343 343 344
335 335 335 334 332 332 332 331 331 331 330 330 329 328 327 326 324 321 323 329 331 331 332 332 332 331 330 330 335 336 337 337 336 335 334 333 332 331 331 331 332 334 337
333 333 332 332 331 331 329 328 328 328 328 329 329 328 328 328 324 325 324 323 325 329 330 331 330 330 329 328 327 331 338 338 337 335 332 333 334 332 330 329 327 328 330
331 330 328 326 323 319 316 317 318 318 319 321 324 325 325 325 324 325 324 323 324 327 328 329 330 329 329 328 328 327 327 330 336 333 334 333 331 328 326 324 325 324 325
321 317 315 315 315 316 317 317 317 317 317 318 319 319 320 321 322 323 322 322 323 325 326 329 329 329 329 329 329 328 328 328 328 328 329 329 329 328 327 326 325 324 326
314 316 316 316 317 317 317 317 317 317 317 317 317 318 319 321 321 321 321 320 321 323 324 325 326 328 328 329 329 329 329 329 328 329 328 328 328 328 329 328 327 328 327
316 316 316 316 316 315 315 315 315 315 315 316 317 317 317 318 318 319 320 320 322 325 322 323 326 327 328 329 330 330 330 330 330 330 330 330 329 329 329 329 328 328 329
315 315 315 314 313 313 311 311 311 312 313 313 313 313 315 317 318 319 322 323 324 324 324 323 322 324 325 326 327 328 330 330 330 330 330 330 330 330 329 330 331 328 328
313 313 313 313 312 311 312 312 312 313 313 314 314 313 313 314 316 317 320 321 321 321 321 320 319 319 319 320 322 324 326 328 329 329 329 329 329 330 330 330 331 331 328
305 305 309 310 311 311 311 312 312 311 310 310 311 311 311 311 313 315 316 317 318 318 317 317 317 317 318 319 320 321 323 324 326 327 328 328 329 329 330 331 331 332 329
303 303 304 304 305 307 307 308 306 305 306 306 307 308 308 308 309 311 313 314 315 315 315 316 318 318 320 322 323 324 324 324 325 324 326 327 329 331 331 331 330 331 330
303 303 303 303 303 304 307 306 305 303 303 305 306 307 307 307 307 309 310 310 311 313 314 316 317 319 320 323 324 324 324 324 325 327 326 326 328 330 331 331 332 331 332
305 304 303 303 303 307 307 307 305 304 305 305 305 305 305 305 305 305 306 308 309 311 313 314 316 318 319 321 323 323 324 324 325 325 326 328 327 328 329 331 332 331 332
307 306 304 303 303 307 307 307 307 307 306 305 304 304 304 304 304 304 304 305 307 310 311 313 315 317 319 321 321 321 322 323 324 326 326 327 327 329 330 330 332 331 331
310 309 308 305 303 304 307 307 307 307 306 304 304 303 303 303 304 304 305 305 306 308 310 312 314 316 318 320 321 321 322 322 323 324 325 327 327 327 327 331 331 331 334
311 310 309 308 305 303 303 307 307 306 306 306 305 304 303 303 303 303 305 305 306 307 309 311 313 315 317 319 320 319 319 320 322 324 324 325 326 328 327 330 333 333 332
Wind_Speed
3 4 5 7 11 11 11 13 15 15 16 15 13 13 10 5 10 12 17 13 14 15 17 20 21 19 21 21 22 21 22 24 26 25 22 15 13 13 14 14 11 11 13
2 4 7 7 9 10 11 12 14 15 17 17 13 10 9 6 10 10 9 15 11 12 16 21 20 17 17 22 24 21 21 21 24 26 22 21 19 18 15 13 13 15 13
10 10 10 10 10 11 13 14 15 17 17 16 15 11 9 9 8 6 7 7 7 12 15 17 16 15 16 17 20 23 21 22 23 25 24 22 20 17 15 14 13 13 14
14 13 12 12 11 11 13 14 15 17 18 17 16 15 12 8 10 14 16 14 14 12 12 8 10 12 14 17 18 19 22 24 23 24 25 23 22 17 17 16 21 18 17
10 9 8 8 7 8 11 12 14 16 17 18 18 15 13 11 8 6 6 10 15 15 14 12 13 13 16 18 19 19 18 20 22 23 25 26 26 23 21 18 18 15 21
5 5 6 11 8 8 13 14 18 18 17 18 19 18 17 14 11 9 11 12 12 13 16 18 18 18 20 21 18 15 16 19 20 23 23 27 26 24 21 19 18 18 21
2 5 8 12 12 13 16 13 18 20 20 21 21 22 21 19 17 17 17 18 19 18 19 19 20 20 22 22 20 19 17 17 17 21 23 24 22 22 20 20 20 20 21
8 7 9 12 14 15 11 17 21 18 23 27 23 20 20 18 17 18 20 21 22 22 20 20 22 20 18 19 22 22 22 20 18 19 22 23 26 23 24 25 22 22 22
14 11 14 11 8 11 16 17 16 23 26 22 19 17 16 16 15 16 18 19 20 18 16 16 17 17 14 16 17 20 22 23 23 24 24 24 23 22 21 24 25 24 26
9 16 8 10 13 15 16 17 20 22 22 20 20 19 17 16 15 15 16 18 16 13 10 12 15 17 15 14 14 16 18 16 16 16 18 21 23 23 20 22 24 26 27
11 12 14 17 18 20 22 22 22 22 20 21 23 20 18 18 19 18 16 14 11 13 11 10 9 11 15 18 18 16 15 15 16 17 19 19 18 18 18 18 20 20 24
16 18 19 20 21 22 23 25 25 25 25 23 24 25 24 25 26 23 21 18 19 21 20 18 17 17 16 16 19 20 20 20 19 20 21 19 16 15 16 19 21 23 23
17 19 21 22 24 26 29 30 29 27 25 25 25 28 30 27 24 19 18 19 23 24 22 22 22 22 23 22 19 20 23 23 22 22 20 17 16 17 19 21 21 23 26
19 22 26 28 28 28 27 26 26 25 25 26 28 29 30 27 24 20 19 20 20 21 25 25 23 24 25 25 24 22 22 24 23 24 25 27 29 29 28 26 27 26 26
23 24 24 24 24 25 25 25 25 23 23 24 25 26 27 27 23 21 20 21 22 21 24 25 25 25 25 26 27 27 25 25 27 27 27 26 26 25 27 25 26 26 25
24 24 25 25 24 24 25 26 23 22 20 18 19 19 20 21 23 23 23 25 25 25 25 25 26 27 29 29 29 30 30 30 30 30 30 30 29 28 28 25 23 26 27
21 21 22 22 22 22 24 26 28 26 25 22 18 19 23 25 24 23 22 22 22 23 25 25 24 23 24 25 26 28 29 28 28 29 29 29 30 30 27 26 26 26 28
16 17 18 19 20 21 21 22 23 26 30 30 26 25 20 17 18 17 16 19 21 19 19 20 22 23 24 25 24 24 25 26 26 26 26 26 27 28 28 27 26 27 26
19 20 21 21 22 21 22 22 22 24 25 27 28 27 24 23 18 16 17 17 19 20 22 23 23 24 27 30 31 29 27 27 27 27 27 28 29 29 30 30 28 26 23
21 23 24 24 23 23 22 21 22 23 24 25 26 28 28 28 27 26 24 24 23 24 24 25 26 26 33 34 37 35 33 32 31 30 30 29 28 28 28 28 26 26 25
23 24 22 23 25 27 27 26 24 23 24 26 27 27 26 25 25 23 21 21 23 26 28 27 25 27 29 26 24 24 26 28 30 31 31 31 29 28 29 28 28 27 26
23 25 25 26 27 30 31 29 26 26 26 27 29 29 28 25 25 28 29 29 27 25 26 27 28 28 23 22 24 20 21 23 25 26 29 31 30 28 28 27 27 28 26
24 26 27 28 28 31 32 33 33 30 29 29 29 29 30 30 29 28 27 27 28 29 29 29 32 32 30 30 26 22 23 26 25 26 25 27 29 28 29 28 27 27 27
24 26 27 27 27 29 32 33 31 32 32 31 30 29 30 30 31 32 31 29 27 26 26 27 28 29 30 31 30 30 32 30 30 23 21 22 25 27 30 30 29 28 28
21 24 25 27 26 24 28 32 33 33 32 32 31 31 30 29 31 33 33 33 32 28 26 26 25 26 27 29 30 31 33 33 35 36 36 34 34 32 29 31 32 30 30
21 21 23 24 25 23 22 25 28 30 32 33 34 33 33 33 33 33 34 36 36 32 27 25 24 24 25 26 26 28 31 32 32 34 35 36 37 36 33 32 32 33 31
Wind_Direction
140 39 8 345 356 6 7 5 4 359 347 336 335 341 344 279 235 225 235 255 281 270 264 264 260 258 259 255 251 251 255 252 257 270 273 278 274 288 286 285 258 242 230
79 25 20 31 36 30 20 12 2 360 357 356 349 334 351 321 273 240 282 265 265 281 276 263 261 261 266 250 253 256 258 256 254 262 267 263 275 282 285 266 266 238 237
87 65 56 45 37 33 29 21 14 8 3 356 356 346 316 300 300 289 296 275 284 275 280 258 250 257 267 273 259 260 253 258 256 256 261 264 272 271 266 258 258 250 244
87 68 60 48 40 27 20 17 14 8 360 353 353 352 343 333 283 278 269 278 271 275 281 264 245 255 271 277 272 268 249 257 255 258 260 264 266 262 260 269 247 257 254
92 73 47 30 15 1 351 352 353 356 357 353 343 340 340 341 333 327 298 282 268 265 255 253 256 268 269 273 275 272 265 259 253 253 260 262 265 258 261 264 264 262 241
88 42 8 345 313 308 318 321 335 335 337 336 334 330 327 326 315 306 305 298 292 279 272 266 264 258 264 264 263 264 259 257 259 257 256 261 265 258 264 266 267 259 256
173 317 322 319 289 302 303 310 324 320 321 324 319 316 312 305 299 292 290 287 285 284 277 274 271 268 265 261 255 253 255 256 259 256 255 258 263 259 264 264 264 262 258
265 278 298 299 297 303 310 324 322 319 326 329 321 314 308 307 299 288 284 284 283 282 280 276 275 274 270 266 254 250 254 257 255 258 261 266 266 268 264 259 259 263 259
286 288 307 304 301 304 315 317 311 319 325 324 325 322 316 315 313 303 293 292 291 288 284 278 271 273 278 269 267 264 263 263 264 265 265 266 264 265 264 264 256 258 258
300 312 286 288 298 300 301 301 310 318 320 319 321 313 309 307 301 298 300 302 293 283 280 278 270 272 275 276 281 280 274 274 269 269 267 266 266 267 269 260 260 258 255
284 275 281 288 292 299 303 306 305 308 303 305 308 311 305 303 305 298 296 292 261 261 269 271 293 302 282 271 270 274 278 276 277 276 272 267 266 269 269 267 263 263 263
271 276 280 284 293 299 302 302 301 298 297 295 297 297 296 303 309 303 282 275 269 272 271 275 275 283 292 294 276 272 271 276 281 283 278 269 264 269 270 268 267 266 265
277 284 286 291 296 299 298 299 298 297 296 294 288 291 296 300 304 304 297 285 270 270 272 271 268 271 276 279 281 276 271 272 277 280 270 260 271 280 277 277 276 271 266
292 292 293 296 298 300 302 302 302 303 300 295 294 295 297 297 298 294 292 292 288 280 272 268 267 265 264 267 269 272 274 275 273 276 275 273 281 285 284 280 276 276 274
307 309 312 315 317 315 310 313 312 308 303 301 302 302 303 302 302 293 290 288 286 288 285 278 273 271 272 268 266 267 269 269 270 275 278 279 279 283 284 282 272 270 268
321 322 323 323 321 318 316 315 315 313 307 293 291 300 297 289 290 287 285 281 281 279 281 283 280 279 278 277 274 269 267 268 270 274 273 272 276 282 285 285 270 267 271
332 329 326 324 324 325 324 325 328 326 327 325 307 290 288 292 295 292 288 285 277 272 276 277 281 279 281 279 276 272 270 269 270 269 272 269 270 274 276 279 275 265 268
351 349 347 345 342 338 343 341 338 337 336 334 332 330 327 317 303 290 285 279 280 276 277 279 281 281 283 283 280 278 275 271 269 269 267 267 267 269 272 275 275 267 263
11 8 6 7 7 2 355 350 343 335 332 329 329 330 332 323 309 301 287 293 293 293 288 286 284 286 287 284 282 278 275 272 270 269 268 267 268 268 270 273 270 270 256
26 21 18 16 13 7 359 352 346 343 337 330 326 321 318 315 311 302 296 303 300 295 292 292 291 292 292 281 274 274 273 270 267 267 268 270 270 265 268 270 266 265 252
18 16 14 13 15 15 12 6 360 355 350 343 339 331 319 317 319 322 311 298 296 298 296 298 296 288 286 282 273 269 271 273 271 267 265 266 268 264 266 267 263 262 250
18 17 15 15 14 10 9 8 1 0 357 352 349 347 343 336 319 305 298 295 290 283 280 282 281 277 286 298 287 283 283 284 278 275 274 269 266 266 268 264 263 259 253
20 19 17 16 15 16 17 17 16 10 4 357 352 351 352 350 345 337 327 314 300 291 287 281 277 277 278 277 276 276 275 280 281 285 273 272 268 268 265 263 261 262 256
17 15 13 12 13 15 17 18 13 9 3 358 356 352 352 352 353 352 347 336 321 308 296 289 283 278 277 274 275 276 276 278 270 273 261 268 275 276 268 260 257 266 261
7 6 7 6 6 7 13 17 17 15 9 4 2 358 356 356 357 358 356 354 344 330 315 303 294 288 284 279 279 280 278 269 265 265 264 264 267 264 265 263 258 260 258
356 354 356 357 358 358 360 8 13 20 17 16 12 7 5 3 1 359 359 1 359 350 335 319 306 297 294 290 286 286 282 276 272 265 262 263 263 261 258 257 256 258 254